Time,TemperatureF,DewpointF,PressureIn,WindDirection,WindDirectionDegrees,WindSpeedMPH,WindSpeedGustMPH,Humidity,HourlyPrecipIn,Conditions,Clouds,dailyrainin,SolarRadiationWatts/m^2,SoftwareType,DateUTC
2013-05-01 00:04:00,73.5,17.7,29.86,North,5,10.0,29.0,12,0.00,,,0.00,0,Wunderground v.1.15,2013-05-01 07:04:00,
2013-05-01 00:10:00,73.4,15.6,29.86,NNE,24,10.0,10.0,11,0.00,,,0.00,0,Wunderground v.1.15,2013-05-01 07:10:00,
2013-05-01 00:15:00,73.3,17.6,29.85,NNE,29,12.0,29.0,12,0.00,,,0.00,0,Wunderground v.1.15,2013-05-01 07:15:00,
2013-05-01 00:21:00,73.4,15.6,29.85,NNE,28,12.0,29.0,11,0.00,,,0.00,0,Wunderground v.1.15,2013-05-01 07:21:00,
2013-05-01 00:26:00,73.3,17.6,29.85,NNE,12,13.0,29.0,12,0.00,,,0.00,0,Wunderground v.1.15,2013-05-01 07:26:00,
2013-05-01 00:31:00,73.2,17.5,29.85,North,5,13.0,14.0,12,0.00,,,0.00,0,Wunderground v.1.15,2013-05-01 07:31:00,
2013-05-01 00:36:00,73.1,15.4,29.85,NE,53,11.0,29.0,11,0.00,,,0.00,0,Wunderground v.1.15,2013-05-01 07:36:00,
2013-05-01 00:41:00,73.0,15.3,29.85,NE,34,10.0,16.0,11,0.00,,,0.00,0,Wunderground v.1.15,2013-05-01 07:41:00,
2013-05-01 00:46:00,72.8,17.2,29.85,NE,44,12.0,30.0,12,0.00,,,0.00,0,Wunderground v.1.15,2013-05-01 07:46:00,
2013-05-01 00:52:00,72.8,15.2,29.84,NW,322,13.0,30.0,11,0.00,,,0.00,0,Wunderground v.1.15,2013-05-01 07:52:00,
2013-05-01 00:58:00,72.8,17.2,29.85,ENE,67,12.0,30.0,12,0.00,,,0.00,0,Wunderground v.1.15,2013-05-01 07:58:00,
2013-05-01 01:03:00,72.6,17.0,29.85,NNE,16,8.0,29.0,12,0.00,,,0.00,0,Wunderground v.1.15,2013-05-01 08:03:00,
2013-05-01 01:08:00,72.4,14.9,29.85,North,5,9.0,29.0,11,0.00,,,0.00,0,Wunderground v.1.15,2013-05-01 08:08:00,
2013-05-01 01:14:00,72.6,15.0,29.86,North,351,12.0,29.0,11,0.00,,,0.00,0,Wunderground v.1.15,2013-05-01 08:14:00,
2013-05-01 01:20:00,72.6,15.0,29.86,North,350,14.0,14.0,11,0.00,,,0.00,0,Wunderground v.1.15,2013-05-01 08:20:00,
2013-05-01 01:25:00,72.6,17.0,29.86,NNE,15,15.0,29.0,12,0.00,,,0.00,0,Wunderground v.1.15,2013-05-01 08:25:00,
2013-05-01 01:30:00,72.5,16.9,29.85,North,350,15.0,15.0,12,0.00,,,0.00,0,Wunderground v.1.15,2013-05-01 08:30:00,
2013-05-01 01:35:00,72.4,16.9,29.85,NNW,346,14.0,29.0,12,0.00,,,0.00,0,Wunderground v.1.15,2013-05-01 08:35:00,
2013-05-01 01:41:00,72.2,16.7,29.85,ENE,59,10.0,29.0,12,0.00,,,0.00,0,Wunderground v.1.15,2013-05-01 08:41:00,
2013-05-01 01:47:00,72.0,16.6,29.86,NE,40,5.0,29.0,12,0.00,,,0.00,0,Wunderground v.1.15,2013-05-01 08:47:00,
2013-05-01 01:52:00,72.0,14.6,29.87,ENE,65,5.0,29.0,11,0.00,,,0.00,0,Wunderground v.1.15,2013-05-01 08:52:00,
2013-05-01 01:57:00,72.2,14.7,29.86,East,96,10.0,29.0,11,0.00,,,0.00,0,Wunderground v.1.15,2013-05-01 08:57:00,
2013-05-01 02:03:00,72.3,14.8,29.85,NE,55,9.0,29.0,11,0.00,,,0.00,0,Wunderground v.1.15,2013-05-01 09:03:00,
2013-05-01 02:08:00,72.2,14.7,29.85,WNW,287,7.0,29.0,11,0.00,,,0.00,0,Wunderground v.1.15,2013-05-01 09:08:00,
2013-05-01 02:14:00,71.9,14.5,29.86,North,355,7.0,29.0,11,0.00,,,0.00,0,Wunderground v.1.15,2013-05-01 09:14:00,
2013-05-01 02:20:00,72.0,14.6,29.85,NNE,30,6.0,6.0,11,0.00,,,0.00,0,Wunderground v.1.15,2013-05-01 09:20:00,
2013-05-01 02:25:00,72.0,14.6,29.85,West,273,7.0,29.0,11,0.00,,,0.00,0,Wunderground v.1.15,2013-05-01 09:25:00,
2013-05-01 02:30:00,72.0,14.6,29.85,NNW,337,10.0,29.0,11,0.00,,,0.00,0,Wunderground v.1.15,2013-05-01 09:30:00,
2013-05-01 02:36:00,71.9,14.5,29.85,NE,36,9.0,29.0,11,0.00,,,0.00,0,Wunderground v.1.15,2013-05-01 09:36:00,
2013-05-01 02:42:00,71.8,14.4,29.86,NE,37,8.0,29.0,11,0.00,,,0.00,0,Wunderground v.1.15,2013-05-01 09:42:00,
2013-05-01 02:47:00,71.8,14.4,29.85,NNW,332,8.0,29.0,11,0.00,,,0.00,0,Wunderground v.1.15,2013-05-01 09:47:00,
2013-05-01 02:52:00,71.9,14.5,29.86,WNW,284,8.0,29.0,11,0.00,,,0.00,0,Wunderground v.1.15,2013-05-01 09:52:00,
2013-05-01 02:58:00,71.8,14.4,29.86,NNW,344,8.0,29.0,11,0.00,,,0.00,0,Wunderground v.1.15,2013-05-01 09:58:00,
2013-05-01 03:03:00,71.7,14.3,29.85,North,360,8.0,29.0,11,0.00,,,0.00,0,Wunderground v.1.15,2013-05-01 10:03:00,
2013-05-01 03:09:00,71.6,14.2,29.85,ENE,66,7.0,29.0,11,0.00,,,0.00,0,Wunderground v.1.15,2013-05-01 10:09:00,
2013-05-01 03:14:00,71.6,14.2,29.85,NE,38,7.0,29.0,11,0.00,,,0.00,0,Wunderground v.1.15,2013-05-01 10:14:00,
2013-05-01 03:20:00,71.4,14.1,29.85,West,261,7.0,29.0,11,0.00,,,0.00,0,Wunderground v.1.15,2013-05-01 10:20:00,
2013-05-01 03:25:00,71.3,14.0,29.86,NW,326,9.0,29.0,11,0.00,,,0.00,0,Wunderground v.1.15,2013-05-01 10:25:00,
2013-05-01 03:31:00,71.3,16.0,29.85,East,79,8.0,29.0,12,0.00,,,0.00,0,Wunderground v.1.15,2013-05-01 10:31:00,
2013-05-01 03:36:00,71.2,15.9,29.86,North,360,5.0,29.0,12,0.00,,,0.00,0,Wunderground v.1.15,2013-05-01 10:36:00,
2013-05-01 03:42:00,70.9,15.7,29.86,North,11,5.0,29.0,12,0.00,,,0.00,0,Wunderground v.1.15,2013-05-01 10:42:00,
2013-05-01 03:48:00,70.8,15.6,29.86,NNE,18,7.0,29.0,12,0.00,,,0.00,0,Wunderground v.1.15,2013-05-01 10:48:00,
2013-05-01 03:53:00,70.5,17.2,29.85,West,270,5.0,29.0,13,0.00,,,0.00,0,Wunderground v.1.15,2013-05-01 10:53:00,
2013-05-01 03:59:00,70.3,15.2,29.86,North,5,5.0,29.0,12,0.00,,,0.00,0,Wunderground v.1.15,2013-05-01 10:59:00,
2013-05-01 04:04:00,70.1,16.9,29.86,WNW,297,7.0,29.0,13,0.00,,,0.00,0,Wunderground v.1.15,2013-05-01 11:04:00,
2013-05-01 04:09:00,70.0,16.8,29.87,WNW,294,6.0,29.0,13,0.00,,,0.00,0,Wunderground v.1.15,2013-05-01 11:09:00,
2013-05-01 04:15:00,70.0,16.8,29.87,NNW,346,6.0,29.0,13,0.00,,,0.00,0,Wunderground v.1.15,2013-05-01 11:15:00,
2013-05-01 04:20:00,70.0,16.8,29.87,NW,313,6.0,29.0,13,0.00,,,0.00,0,Wunderground v.1.15,2013-05-01 11:20:00,
2013-05-01 04:26:00,70.0,16.8,29.87,NW,309,6.0,29.0,13,0.00,,,0.00,0,Wunderground v.1.15,2013-05-01 11:26:00,
2013-05-01 04:32:00,70.0,16.8,29.87,NW,321,9.0,29.0,13,0.00,,,0.00,0,Wunderground v.1.15,2013-05-01 11:32:00,
2013-05-01 04:38:00,69.8,16.7,29.88,NNW,338,8.0,29.0,13,0.00,,,0.00,0,Wunderground v.1.15,2013-05-01 11:38:00,
2013-05-01 04:43:00,69.7,16.6,29.88,West,265,9.0,29.0,13,0.00,,,0.00,0,Wunderground v.1.15,2013-05-01 11:43:00,
2013-05-01 04:48:00,69.4,16.4,29.88,NE,43,9.0,29.0,13,0.00,,,0.00,0,Wunderground v.1.15,2013-05-01 11:48:00,
2013-05-01 04:53:00,69.2,16.2,29.88,NW,312,8.0,29.0,13,0.00,,,0.00,0,Wunderground v.1.15,2013-05-01 11:53:00,
2013-05-01 04:58:00,69.0,16.0,29.87,West,275,7.0,29.0,13,0.00,,,0.00,0,Wunderground v.1.15,2013-05-01 11:58:00,
2013-05-01 05:03:00,68.9,16.0,29.88,North,355,7.0,29.0,13,0.00,,,0.00,0,Wunderground v.1.15,2013-05-01 12:03:00,
2013-05-01 05:08:00,68.8,15.9,29.88,WSW,250,6.0,29.0,13,0.00,,,0.00,0,Wunderground v.1.15,2013-05-01 12:08:00,
2013-05-01 05:14:00,68.8,15.9,29.88,NNE,20,7.0,29.0,13,0.00,,,0.00,0,Wunderground v.1.15,2013-05-01 12:14:00,
2013-05-01 05:20:00,69.1,16.1,29.88,North,5,8.0,29.0,13,0.00,,,0.00,0,Wunderground v.1.15,2013-05-01 12:20:00,
2013-05-01 05:25:00,69.2,16.2,29.88,West,265,9.0,29.0,13,0.00,,,0.00,0,Wunderground v.1.15,2013-05-01 12:25:00,
2013-05-01 05:30:00,69.2,16.2,29.88,SW,221,8.0,8.0,13,0.00,,,0.00,0,Wunderground v.1.15,2013-05-01 12:30:00,
2013-05-01 05:35:00,69.0,16.0,29.88,West,270,3.0,29.0,13,0.00,,,0.00,0,Wunderground v.1.15,2013-05-01 12:35:00,
2013-05-01 05:41:00,68.9,16.0,29.89,NNW,338,6.0,29.0,13,0.00,,,0.00,0,Wunderground v.1.15,2013-05-01 12:41:00,
2013-05-01 05:46:00,69.0,16.0,29.89,ENE,67,10.0,29.0,13,0.00,,,0.00,0,Wunderground v.1.15,2013-05-01 12:46:00,
2013-05-01 05:51:00,69.1,16.1,29.88,East,99,11.0,29.0,13,0.00,,,0.00,0,Wunderground v.1.15,2013-05-01 12:51:00,
2013-05-01 05:56:00,69.1,16.1,29.90,West,277,9.0,29.0,13,0.00,,,0.00,0,Wunderground v.1.15,2013-05-01 12:56:00,
2013-05-01 06:02:00,68.8,15.9,29.89,SW,217,8.0,29.0,13,0.00,,,0.00,0,Wunderground v.1.15,2013-05-01 13:02:00,
2013-05-01 06:07:00,68.4,15.6,29.91,NNE,23,9.0,29.0,13,0.00,,,0.00,0,Wunderground v.1.15,2013-05-01 13:07:00,
2013-05-01 06:12:00,68.4,15.6,29.91,NE,34,7.0,29.0,13,0.00,,,0.00,0,Wunderground v.1.15,2013-05-01 13:12:00,
2013-05-01 06:18:00,68.3,15.5,29.91,NNE,24,4.0,29.0,13,0.00,,,0.00,7,Wunderground v.1.15,2013-05-01 13:18:00,
2013-05-01 06:24:00,68.5,15.7,29.92,SE,126,4.0,29.0,13,0.00,,,0.00,11,Wunderground v.1.15,2013-05-01 13:24:00,
2013-05-01 06:29:00,68.5,15.7,29.91,WSW,237,6.0,29.0,13,0.00,,,0.00,14,Wunderground v.1.15,2013-05-01 13:29:00,
2013-05-01 06:34:00,68.4,15.6,29.92,North,10,6.0,29.0,13,0.00,,,0.00,16,Wunderground v.1.15,2013-05-01 13:34:00,
2013-05-01 06:40:00,68.2,15.4,29.92,WSW,250,5.0,29.0,13,0.00,,,0.00,19,Wunderground v.1.15,2013-05-01 13:40:00,
2013-05-01 06:45:00,68.1,17.0,29.92,West,281,5.0,29.0,14,0.00,,,0.00,23,Wunderground v.1.15,2013-05-01 13:45:00,
2013-05-01 06:50:00,68.0,17.0,29.92,ESE,119,3.0,29.0,14,0.00,,,0.00,25,Wunderground v.1.15,2013-05-01 13:50:00,
2013-05-01 06:55:00,67.7,16.7,29.92,SSW,212,2.0,29.0,14,0.00,,,0.00,28,Wunderground v.1.15,2013-05-01 13:55:00,
2013-05-01 07:00:00,67.6,16.6,29.92,SSE,150,3.0,29.0,14,0.00,,,0.00,72,Wunderground v.1.15,2013-05-01 14:00:00,
2013-05-01 07:06:00,68.0,18.6,29.93,North,360,4.0,29.0,15,0.00,,,0.00,91,Wunderground v.1.15,2013-05-01 14:06:00,
2013-05-01 07:12:00,68.0,18.6,29.93,North,5,2.0,29.0,15,0.00,,,0.00,113,Wunderground v.1.15,2013-05-01 14:12:00,
2013-05-01 07:17:00,68.3,15.5,29.93,SE,129,2.0,29.0,13,0.00,,,0.00,132,Wunderground v.1.15,2013-05-01 14:17:00,
2013-05-01 07:22:00,68.6,22.0,29.93,NW,325,2.0,29.0,17,0.00,,,0.00,146,Wunderground v.1.15,2013-05-01 14:22:00,
2013-05-01 07:28:00,68.8,20.7,29.94,South,180,1.0,29.0,16,0.00,,,0.00,171,Wunderground v.1.15,2013-05-01 14:28:00,
2013-05-01 07:34:00,69.0,19.4,29.94,South,182,1.0,29.0,15,0.00,,,0.00,200,Wunderground v.1.15,2013-05-01 14:34:00,
2013-05-01 07:40:00,69.4,19.7,29.95,NNW,336,1.0,29.0,15,0.00,,,0.00,223,Wunderground v.1.15,2013-05-01 14:40:00,
2013-05-01 07:45:00,69.7,18.3,29.94,South,191,2.0,29.0,14,0.00,,,0.00,241,Wunderground v.1.15,2013-05-01 14:45:00,
2013-05-01 07:50:00,69.9,20.1,29.95,ENE,76,2.0,2.0,15,0.00,,,0.00,258,Wunderground v.1.15,2013-05-01 14:50:00,
2013-05-01 07:56:00,70.3,20.4,29.95,East,99,1.0,29.0,15,0.00,,,0.00,279,Wunderground v.1.15,2013-05-01 14:56:00,
2013-05-01 08:01:00,70.6,22.2,29.95,South,181,1.0,29.0,16,0.00,,,0.00,297,Wunderground v.1.15,2013-05-01 15:01:00,
2013-05-01 08:07:00,70.9,19.3,29.95,SSW,198,2.0,29.0,14,0.00,,,0.00,318,Wunderground v.1.15,2013-05-01 15:07:00,
2013-05-01 08:13:00,71.1,17.7,29.95,SW,217,2.0,29.0,13,0.00,,,0.00,339,Wunderground v.1.15,2013-05-01 15:13:00,
2013-05-01 08:18:00,71.2,15.9,29.95,North,5,4.0,29.0,12,0.00,,,0.00,357,Wunderground v.1.15,2013-05-01 15:18:00,
2013-05-01 08:24:00,71.5,18.0,29.96,East,90,3.0,29.0,13,0.00,,,0.00,376,Wunderground v.1.15,2013-05-01 15:24:00,
2013-05-01 08:29:00,71.8,16.4,29.96,West,280,2.0,29.0,12,0.00,,,0.00,394,Wunderground v.1.15,2013-05-01 15:29:00,
2013-05-01 08:34:00,71.8,18.3,29.96,WNW,286,3.0,29.0,13,0.00,,,0.00,411,Wunderground v.1.15,2013-05-01 15:34:00,
2013-05-01 08:39:00,71.8,16.4,29.96,NNE,17,3.0,29.0,12,0.00,,,0.00,425,Wunderground v.1.15,2013-05-01 15:39:00,
2013-05-01 08:45:00,72.0,18.4,29.97,NNE,16,2.0,29.0,13,0.00,,,0.00,446,Wunderground v.1.15,2013-05-01 15:45:00,
2013-05-01 08:50:00,72.8,20.8,29.97,NNE,22,0.0,29.0,14,0.00,,,0.00,464,Wunderground v.1.15,2013-05-01 15:50:00,
2013-05-01 08:55:00,73.0,17.3,29.98,NNW,346,2.0,29.0,12,0.00,,,0.00,483,Wunderground v.1.15,2013-05-01 15:55:00,
2013-05-01 09:01:00,72.8,17.2,29.98,NNE,22,4.0,29.0,12,0.00,,,0.00,503,Wunderground v.1.15,2013-05-01 16:01:00,
2013-05-01 09:06:00,73.1,19.3,29.98,ENE,65,2.0,29.0,13,0.00,,,0.00,517,Wunderground v.1.15,2013-05-01 16:06:00,
2013-05-01 09:11:00,73.3,21.2,29.98,North,11,2.0,29.0,14,0.00,,,0.00,533,Wunderground v.1.15,2013-05-01 16:11:00,
2013-05-01 09:16:00,73.2,21.1,29.98,ENE,73,4.0,29.0,14,0.00,,,0.00,550,Wunderground v.1.15,2013-05-01 16:16:00,
2013-05-01 09:22:00,73.2,19.4,29.98,East,82,4.0,29.0,13,0.00,,,0.00,570,Wunderground v.1.15,2013-05-01 16:22:00,
2013-05-01 09:27:00,73.2,19.4,29.98,NNE,22,5.0,29.0,13,0.00,,,0.00,587,Wunderground v.1.15,2013-05-01 16:27:00,
2013-05-01 09:33:00,73.2,19.4,29.98,North,350,7.0,29.0,13,0.00,,,0.00,605,Wunderground v.1.15,2013-05-01 16:33:00,
2013-05-01 09:38:00,73.2,19.4,29.99,North,351,6.0,29.0,13,0.00,,,0.00,622,Wunderground v.1.15,2013-05-01 16:38:00,
2013-05-01 09:44:00,73.7,19.8,29.99,WNW,296,4.0,29.0,13,0.00,,,0.00,640,Wunderground v.1.15,2013-05-01 16:44:00,
2013-05-01 09:49:00,74.0,20.0,29.99,ENE,75,3.0,29.0,13,0.00,,,0.00,654,Wunderground v.1.15,2013-05-01 16:49:00,
2013-05-01 09:55:00,74.4,20.3,29.99,NW,317,4.0,29.0,13,0.00,,,0.00,670,Wunderground v.1.15,2013-05-01 16:55:00,
2013-05-01 10:00:00,74.6,18.6,29.99,East,98,6.0,29.0,12,0.00,,,0.00,686,Wunderground v.1.15,2013-05-01 17:00:00,
2013-05-01 10:05:00,74.9,20.7,29.99,NE,42,5.0,29.0,13,0.00,,,0.00,701,Wunderground v.1.15,2013-05-01 17:05:00,
2013-05-01 10:10:00,75.1,19.0,29.99,NNE,19,6.0,6.0,12,0.00,,,0.00,712,Wunderground v.1.15,2013-05-01 17:10:00,
2013-05-01 10:16:00,75.1,19.0,29.99,NNW,345,7.0,29.0,12,0.00,,,0.00,731,Wunderground v.1.15,2013-05-01 17:16:00,
2013-05-01 10:22:00,75.5,19.3,29.99,NNE,19,7.0,29.0,12,0.00,,,0.00,745,Wunderground v.1.15,2013-05-01 17:22:00,
2013-05-01 10:28:00,75.5,19.3,29.99,NE,39,8.0,29.0,12,0.00,,,0.00,758,Wunderground v.1.15,2013-05-01 17:28:00,
2013-05-01 10:33:00,75.7,19.4,29.99,NE,49,9.0,29.0,12,0.00,,,0.00,772,Wunderground v.1.15,2013-05-01 17:33:00,
2013-05-01 10:38:00,76.0,19.7,30.00,North,5,8.0,29.0,12,0.00,,,0.00,782,Wunderground v.1.15,2013-05-01 17:38:00,
2013-05-01 10:43:00,76.2,17.8,29.99,NNW,333,9.0,29.0,11,0.00,,,0.00,796,Wunderground v.1.15,2013-05-01 17:43:00,
2013-05-01 10:48:00,76.3,19.9,29.99,North,350,9.0,29.0,12,0.00,,,0.00,807,Wunderground v.1.15,2013-05-01 17:48:00,
2013-05-01 10:54:00,76.7,20.2,30.00,NNW,348,8.0,29.0,12,0.00,,,0.00,816,Wunderground v.1.15,2013-05-01 17:54:00,
2013-05-01 10:59:00,76.8,18.3,30.00,NNW,344,9.0,29.0,11,0.00,,,0.00,828,Wunderground v.1.15,2013-05-01 17:59:00,
2013-05-01 11:05:00,76.8,18.3,30.01,NNE,27,9.0,29.0,11,0.00,,,0.00,842,Wunderground v.1.15,2013-05-01 18:05:00,
2013-05-01 11:10:00,77.0,18.4,30.00,North,351,9.0,9.0,11,0.00,,,0.00,851,Wunderground v.1.15,2013-05-01 18:10:00,
2013-05-01 11:15:00,77.4,18.7,30.01,NNW,331,8.0,29.0,11,0.00,,,0.00,858,Wunderground v.1.15,2013-05-01 18:15:00,
2013-05-01 11:20:00,77.7,19.0,30.01,NNE,14,8.0,8.0,11,0.00,,,0.00,868,Wunderground v.1.15,2013-05-01 18:20:00,
2013-05-01 11:25:00,78.1,19.3,30.01,North,355,6.0,29.0,11,0.00,,,0.00,877,Wunderground v.1.15,2013-05-01 18:25:00,
2013-05-01 11:30:00,78.8,19.8,30.01,NNE,14,5.0,5.0,11,0.00,,,0.00,882,Wunderground v.1.15,2013-05-01 18:30:00,
2013-05-01 11:36:00,78.7,17.5,30.01,NNW,344,5.0,29.0,10,0.00,,,0.00,891,Wunderground v.1.15,2013-05-01 18:36:00,
2013-05-01 11:41:00,78.5,19.6,30.01,NNW,327,6.0,29.0,11,0.00,,,0.00,898,Wunderground v.1.15,2013-05-01 18:41:00,
2013-05-01 11:47:00,78.7,19.7,30.01,NNE,23,5.0,29.0,11,0.00,,,0.00,911,Wunderground v.1.15,2013-05-01 18:47:00,
2013-05-01 11:53:00,78.9,21.9,30.01,North,9,4.0,29.0,12,0.00,,,0.00,919,Wunderground v.1.15,2013-05-01 18:53:00,
2013-05-01 11:59:00,79.4,20.3,30.01,NE,46,4.0,29.0,11,0.00,,,0.00,925,Wunderground v.1.15,2013-05-01 18:59:00,
2013-05-01 12:05:00,79.4,20.3,30.01,NE,54,5.0,29.0,11,0.00,,,0.00,933,Wunderground v.1.15,2013-05-01 19:05:00,
2013-05-01 12:11:00,80.2,23.0,30.01,NW,313,4.0,29.0,12,0.00,,,0.00,939,Wunderground v.1.15,2013-05-01 19:11:00,
2013-05-01 12:17:00,80.9,21.4,30.01,ENE,72,4.0,29.0,11,0.00,,,0.00,944,Wunderground v.1.15,2013-05-01 19:17:00,
2013-05-01 12:22:00,80.9,23.5,30.01,NNE,19,5.0,29.0,12,0.00,,,0.00,949,Wunderground v.1.15,2013-05-01 19:22:00,
2013-05-01 12:27:00,80.9,21.4,30.01,NNW,348,6.0,29.0,11,0.00,,,0.00,949,Wunderground v.1.15,2013-05-01 19:27:00,
2013-05-01 12:32:00,80.6,19.0,30.01,NNW,338,7.0,29.0,10,0.00,,,0.00,956,Wunderground v.1.15,2013-05-01 19:32:00,
2013-05-01 12:37:00,80.6,21.2,30.01,NNW,338,6.0,29.0,11,0.00,,,0.00,958,Wunderground v.1.15,2013-05-01 19:37:00,
2013-05-01 12:42:00,81.3,23.8,30.01,North,355,4.0,29.0,12,0.00,,,0.00,963,Wunderground v.1.15,2013-05-01 19:42:00,
2013-05-01 12:47:00,81.9,19.9,30.01,NNE,24,5.0,29.0,10,0.00,,,0.00,965,Wunderground v.1.15,2013-05-01 19:47:00,
2013-05-01 12:53:00,81.6,22.0,30.01,NW,314,7.0,29.0,11,0.00,,,0.00,965,Wunderground v.1.15,2013-05-01 19:53:00,
2013-05-01 12:58:00,81.6,19.7,30.01,WNW,298,6.0,29.0,10,0.00,,,0.00,967,Wunderground v.1.15,2013-05-01 19:58:00,
2013-05-01 13:03:00,81.9,22.2,30.01,ESE,120,5.0,29.0,11,0.00,,,0.00,969,Wunderground v.1.15,2013-05-01 20:03:00,
2013-05-01 13:08:00,82.8,22.9,30.01,NNW,331,4.0,29.0,11,0.00,,,0.00,970,Wunderground v.1.15,2013-05-01 20:08:00,
2013-05-01 13:13:00,83.2,23.2,30.01,NNE,32,3.0,29.0,11,0.00,,,0.00,972,Wunderground v.1.15,2013-05-01 20:13:00,
2013-05-01 13:19:00,83.1,20.9,30.01,ESE,119,4.0,29.0,10,0.00,,,0.00,972,Wunderground v.1.15,2013-05-01 20:19:00,
2013-05-01 13:24:00,82.6,20.5,30.01,East,100,6.0,29.0,10,0.00,,,0.00,970,Wunderground v.1.15,2013-05-01 20:24:00,
2013-05-01 13:29:00,82.0,20.0,30.01,East,99,7.0,29.0,10,0.00,,,0.00,969,Wunderground v.1.15,2013-05-01 20:29:00,
2013-05-01 13:34:00,81.9,19.9,30.01,NE,55,8.0,29.0,10,0.00,,,0.00,967,Wunderground v.1.15,2013-05-01 20:34:00,
2013-05-01 13:39:00,82.2,20.2,30.01,NNE,31,8.0,29.0,10,0.00,,,0.00,965,Wunderground v.1.15,2013-05-01 20:39:00,
2013-05-01 13:44:00,82.5,17.9,30.01,ESE,120,6.0,29.0,9,0.00,,,0.00,963,Wunderground v.1.15,2013-05-01 20:44:00,
2013-05-01 13:49:00,82.5,22.7,30.01,East,80,7.0,29.0,11,0.00,,,0.00,962,Wunderground v.1.15,2013-05-01 20:49:00,
2013-05-01 13:55:00,82.6,22.7,30.01,NNE,18,6.0,29.0,11,0.00,,,0.00,956,Wunderground v.1.15,2013-05-01 20:55:00,
2013-05-01 14:00:00,82.7,22.8,30.01,North,5,5.0,5.0,11,0.00,,,0.00,949,Wunderground v.1.15,2013-05-01 21:00:00,
2013-05-01 14:06:00,83.1,23.1,30.01,North,360,4.0,29.0,11,0.00,,,0.00,944,Wunderground v.1.15,2013-05-01 21:06:00,
2013-05-01 14:11:00,83.5,23.4,30.01,North,350,5.0,14.0,11,0.00,,,0.00,939,Wunderground v.1.15,2013-05-01 21:11:00,
2013-05-01 14:17:00,83.5,21.2,30.00,NNE,24,7.0,29.0,10,0.00,,,0.00,932,Wunderground v.1.15,2013-05-01 21:17:00,
2013-05-01 14:22:00,83.8,23.7,30.01,North,349,5.0,29.0,11,0.00,,,0.00,925,Wunderground v.1.15,2013-05-01 21:22:00,
2013-05-01 14:28:00,84.0,23.8,30.01,NNW,327,6.0,29.0,11,0.00,,,0.00,918,Wunderground v.1.15,2013-05-01 21:28:00,
2013-05-01 14:33:00,84.6,24.3,30.01,NE,38,4.0,29.0,11,0.00,,,0.00,912,Wunderground v.1.15,2013-05-01 21:33:00,
2013-05-01 14:39:00,85.0,24.6,30.01,NE,40,4.0,29.0,11,0.00,,,0.00,905,Wunderground v.1.15,2013-05-01 21:39:00,
2013-05-01 14:44:00,84.4,21.9,30.01,ENE,74,7.0,29.0,10,0.00,,,0.00,896,Wunderground v.1.15,2013-05-01 21:44:00,
2013-05-01 14:50:00,83.4,23.4,30.01,East,84,9.0,29.0,11,0.00,,,0.00,889,Wunderground v.1.15,2013-05-01 21:50:00,
2013-05-01 14:55:00,83.2,23.2,30.01,WNW,287,8.0,29.0,11,0.00,,,0.00,879,Wunderground v.1.15,2013-05-01 21:55:00,
2013-05-01 15:00:00,84.2,24.0,30.01,ENE,57,5.0,5.0,11,0.00,,,0.00,870,Wunderground v.1.15,2013-05-01 22:00:00,
2013-05-01 15:06:00,84.2,24.0,30.01,ENE,69,5.0,29.0,11,0.00,,,0.00,858,Wunderground v.1.15,2013-05-01 22:06:00,
2013-05-01 15:11:00,84.0,23.8,30.01,East,101,7.0,7.0,11,0.00,,,0.00,849,Wunderground v.1.15,2013-05-01 22:11:00,
2013-05-01 15:16:00,84.0,23.8,30.01,NE,55,7.0,29.0,11,0.00,,,0.00,838,Wunderground v.1.15,2013-05-01 22:16:00,
2013-05-01 15:22:00,84.4,26.2,30.00,NNE,24,5.0,29.0,12,0.00,,,0.00,830,Wunderground v.1.15,2013-05-01 22:22:00,
2013-05-01 15:28:00,84.7,24.4,30.00,NW,323,5.0,29.0,11,0.00,,,0.00,816,Wunderground v.1.15,2013-05-01 22:28:00,
2013-05-01 15:33:00,84.8,24.4,30.00,North,351,6.0,29.0,11,0.00,,,0.00,807,Wunderground v.1.15,2013-05-01 22:33:00,
2013-05-01 15:38:00,85.5,25.0,30.00,East,90,4.0,29.0,11,0.00,,,0.00,793,Wunderground v.1.15,2013-05-01 22:38:00,
2013-05-01 15:43:00,85.3,24.8,30.00,NNE,12,4.0,29.0,11,0.00,,,0.00,784,Wunderground v.1.15,2013-05-01 22:43:00,
2013-05-01 15:48:00,85.1,24.7,30.00,ESE,120,5.0,29.0,11,0.00,,,0.00,770,Wunderground v.1.15,2013-05-01 22:48:00,
2013-05-01 15:54:00,85.5,25.0,30.00,East,84,5.0,29.0,11,0.00,,,0.00,756,Wunderground v.1.15,2013-05-01 22:54:00,
2013-05-01 15:59:00,85.6,27.1,30.00,NE,44,5.0,29.0,12,0.00,,,0.00,740,Wunderground v.1.15,2013-05-01 22:59:00,
2013-05-01 16:04:00,85.6,25.0,30.00,NNW,346,5.0,29.0,11,0.00,,,0.00,728,Wunderground v.1.15,2013-05-01 23:04:00,
2013-05-01 16:10:00,85.6,25.0,30.00,SE,128,5.0,29.0,11,0.00,,,0.00,710,Wunderground v.1.15,2013-05-01 23:10:00,
2013-05-01 16:16:00,85.9,25.3,30.00,East,91,4.0,29.0,11,0.00,,,0.00,696,Wunderground v.1.15,2013-05-01 23:16:00,
2013-05-01 16:21:00,85.9,25.3,30.00,East,95,4.0,29.0,11,0.00,,,0.00,679,Wunderground v.1.15,2013-05-01 23:21:00,
2013-05-01 16:27:00,85.4,24.9,30.00,ESE,103,6.0,29.0,11,0.00,,,0.00,663,Wunderground v.1.15,2013-05-01 23:27:00,
2013-05-01 16:32:00,85.2,24.7,30.00,East,80,6.0,29.0,11,0.00,,,0.00,647,Wunderground v.1.15,2013-05-01 23:32:00,
2013-05-01 16:38:00,85.2,24.7,30.00,East,98,5.0,29.0,11,0.00,,,0.00,629,Wunderground v.1.15,2013-05-01 23:38:00,
2013-05-01 16:44:00,85.4,27.0,30.00,East,88,5.0,29.0,12,0.00,,,0.00,610,Wunderground v.1.15,2013-05-01 23:44:00,
2013-05-01 16:49:00,85.8,25.2,30.00,East,90,5.0,29.0,11,0.00,,,0.00,596,Wunderground v.1.15,2013-05-01 23:49:00,
2013-05-01 16:55:00,86.0,27.5,30.00,SE,136,4.0,29.0,12,0.00,,,0.00,577,Wunderground v.1.15,2013-05-01 23:55:00,
2013-05-01 17:00:00,85.9,27.4,30.00,ENE,77,4.0,4.0,12,0.00,,,0.00,563,Wunderground v.1.15,2013-05-02 00:00:00,
2013-05-01 17:06:00,85.7,27.2,30.00,ENE,78,5.0,29.0,12,0.00,,,0.00,545,Wunderground v.1.15,2013-05-02 00:06:00,
2013-05-01 17:11:00,85.8,25.2,30.00,ESE,104,4.0,29.0,11,0.00,,,0.00,527,Wunderground v.1.15,2013-05-02 00:11:00,
2013-05-01 17:16:00,85.7,25.1,30.00,ENE,78,5.0,29.0,11,0.00,,,0.00,513,Wunderground v.1.15,2013-05-02 00:16:00,
2013-05-01 17:21:00,85.6,25.0,30.00,ESE,104,6.0,29.0,11,0.00,,,0.00,494,Wunderground v.1.15,2013-05-02 00:21:00,
2013-05-01 17:26:00,85.5,25.0,30.00,ENE,75,6.0,29.0,11,0.00,,,0.00,476,Wunderground v.1.15,2013-05-02 00:26:00,
2013-05-01 17:32:00,85.6,27.1,30.00,East,82,3.0,29.0,12,0.00,,,0.00,455,Wunderground v.1.15,2013-05-02 00:32:00,
2013-05-01 17:38:00,85.8,25.2,30.00,ENE,72,2.0,29.0,11,0.00,,,0.00,436,Wunderground v.1.15,2013-05-02 00:38:00,
2013-05-01 17:43:00,85.9,27.4,30.00,ESE,105,2.0,29.0,12,0.00,,,0.00,418,Wunderground v.1.15,2013-05-02 00:43:00,
2013-05-01 17:48:00,85.9,25.3,30.00,East,96,4.0,29.0,11,0.00,,,0.00,401,Wunderground v.1.15,2013-05-02 00:48:00,
2013-05-01 17:54:00,85.8,25.2,30.00,NE,45,3.0,29.0,11,0.00,,,0.00,380,Wunderground v.1.15,2013-05-02 00:54:00,
2013-05-01 18:00:00,86.0,27.5,30.00,ESE,106,1.0,29.0,12,0.00,,,0.00,360,Wunderground v.1.15,2013-05-02 01:00:00,
2013-05-01 18:06:00,86.0,25.4,30.00,ESE,115,2.0,29.0,11,0.00,,,0.00,339,Wunderground v.1.15,2013-05-02 01:06:00,
2013-05-01 18:11:00,85.9,25.3,30.00,ESE,109,4.0,29.0,11,0.00,,,0.00,322,Wunderground v.1.15,2013-05-02 01:11:00,
2013-05-01 18:16:00,85.7,25.1,30.00,ENE,60,3.0,29.0,11,0.00,,,0.00,306,Wunderground v.1.15,2013-05-02 01:16:00,
2013-05-01 18:21:00,85.6,25.0,30.00,East,82,3.0,5.0,11,0.00,,,0.00,288,Wunderground v.1.15,2013-05-02 01:21:00,
2013-05-01 18:26:00,85.4,27.0,30.00,ESE,111,3.0,29.0,12,0.00,,,0.00,267,Wunderground v.1.15,2013-05-02 01:26:00,
2013-05-01 18:32:00,85.2,26.8,30.00,East,82,4.0,29.0,12,0.00,,,0.00,246,Wunderground v.1.15,2013-05-02 01:32:00,
2013-05-01 18:38:00,85.0,26.7,30.00,ENE,78,3.0,29.0,12,0.00,,,0.00,213,Wunderground v.1.15,2013-05-02 01:38:00,
2013-05-01 18:43:00,85.0,28.6,30.00,ENE,78,1.0,29.0,13,0.00,,,0.00,199,Wunderground v.1.15,2013-05-02 01:43:00,
2013-05-01 18:48:00,85.3,35.5,30.00,West,281,1.0,29.0,17,0.00,,,0.00,172,Wunderground v.1.15,2013-05-02 01:48:00,
2013-05-01 18:53:00,85.3,38.4,30.00,WSW,254,1.0,29.0,19,0.00,,,0.00,155,Wunderground v.1.15,2013-05-02 01:53:00,
2013-05-01 18:59:00,84.9,40.6,30.00,West,281,1.0,29.0,21,0.00,,,0.00,132,Wunderground v.1.15,2013-05-02 01:59:00,
2013-05-01 19:05:00,84.0,39.9,30.01,NNW,336,1.0,29.0,21,0.00,,,0.00,111,Wunderground v.1.15,2013-05-02 02:05:00,
2013-05-01 19:10:00,83.1,40.3,30.01,WNW,295,2.0,2.0,22,0.00,,,0.00,90,Wunderground v.1.15,2013-05-02 02:10:00,
2013-05-01 19:15:00,82.1,40.6,30.01,WNW,295,2.0,29.0,23,0.00,,,0.00,58,Wunderground v.1.15,2013-05-02 02:15:00,
2013-05-01 19:21:00,80.6,39.4,30.02,WNW,295,2.0,29.0,23,0.00,,,0.00,47,Wunderground v.1.15,2013-05-02 02:21:00,
2013-05-01 19:26:00,79.2,39.3,30.02,WNW,299,2.0,29.0,24,0.00,,,0.00,30,Wunderground v.1.15,2013-05-02 02:26:00,
2013-05-01 19:32:00,77.8,39.1,30.02,West,275,2.0,29.0,25,0.00,,,0.00,26,Wunderground v.1.15,2013-05-02 02:32:00,
2013-05-01 19:37:00,76.9,39.4,30.03,NW,307,1.0,29.0,26,0.00,,,0.00,23,Wunderground v.1.15,2013-05-02 02:37:00,
2013-05-01 19:43:00,75.9,39.5,30.03,WNW,302,1.0,29.0,27,0.00,,,0.00,18,Wunderground v.1.15,2013-05-02 02:43:00,
2013-05-01 19:48:00,75.2,39.8,30.03,WNW,302,1.0,29.0,28,0.00,,,0.00,14,Wunderground v.1.15,2013-05-02 02:48:00,
2013-05-01 19:53:00,74.7,40.3,30.03,WNW,301,0.0,29.0,29,0.00,,,0.00,11,Wunderground v.1.15,2013-05-02 02:53:00,
2013-05-01 19:58:00,74.1,40.7,30.03,NW,313,1.0,29.0,30,0.00,,,0.00,7,Wunderground v.1.15,2013-05-02 02:58:00,
2013-05-01 20:03:00,73.5,41.0,30.04,NW,313,1.0,29.0,31,0.00,,,0.00,0,Wunderground v.1.15,2013-05-02 03:03:00,
2013-05-01 20:08:00,72.8,41.2,30.04,NW,309,1.0,29.0,32,0.00,,,0.00,0,Wunderground v.1.15,2013-05-02 03:08:00,
2013-05-01 20:14:00,72.1,40.6,30.04,NW,309,0.0,29.0,32,0.00,,,0.00,0,Wunderground v.1.15,2013-05-02 03:14:00,
2013-05-01 20:19:00,71.5,40.9,30.04,NW,309,0.0,29.0,33,0.00,,,0.00,0,Wunderground v.1.15,2013-05-02 03:19:00,
2013-05-01 20:24:00,70.9,40.3,30.05,NW,309,0.0,29.0,33,0.00,,,0.00,0,Wunderground v.1.15,2013-05-02 03:24:00,
2013-05-01 20:30:00,70.4,40.7,30.05,NW,309,0.0,29.0,34,0.00,,,0.00,0,Wunderground v.1.15,2013-05-02 03:30:00,
2013-05-01 20:36:00,69.9,41.0,30.05,NW,309,0.0,29.0,35,0.00,,,0.00,0,Wunderground v.1.15,2013-05-02 03:36:00,
2013-05-01 20:41:00,69.5,40.6,30.05,NW,309,0.0,29.0,35,0.00,,,0.00,0,Wunderground v.1.15,2013-05-02 03:41:00,
2013-05-01 20:46:00,69.1,41.7,30.05,NW,309,0.0,29.0,37,0.00,,,0.00,0,Wunderground v.1.15,2013-05-02 03:46:00,
2013-05-01 20:52:00,68.5,41.2,30.06,NW,309,0.0,29.0,37,0.00,,,0.00,0,Wunderground v.1.15,2013-05-02 03:52:00,
2013-05-01 20:58:00,67.8,40.6,30.06,NW,309,0.0,29.0,37,0.00,,,0.00,0,Wunderground v.1.15,2013-05-02 03:58:00,
2013-05-01 21:01:00,67.6,41.1,30.06,NW,309,0.0,29.0,38,0.00,,,0.00,0,Wunderground v.1.15,2013-05-02 04:01:00,
2013-05-01 21:02:00,67.4,40.2,30.06,NW,309,0.0,29.0,37,0.00,,,0.00,0,Wunderground v.1.15,2013-05-02 04:02:00,
2013-05-01 21:05:00,67.2,40.7,30.06,NW,309,0.0,29.0,38,0.00,,,0.00,0,Wunderground v.1.15,2013-05-02 04:05:00,
2013-05-01 21:06:00,67.1,40.6,30.06,NW,309,0.0,29.0,38,0.00,,,0.00,0,Wunderground v.1.15,2013-05-02 04:06:00,
2013-05-01 21:07:00,67.0,40.5,30.06,NW,309,0.0,29.0,38,0.00,,,0.00,0,Wunderground v.1.15,2013-05-02 04:07:00,
2013-05-01 21:12:00,66.7,40.3,30.06,NW,309,0.0,29.0,38,0.00,,,0.00,0,Wunderground v.1.15,2013-05-02 04:12:00,
2013-05-01 21:17:00,66.3,40.6,30.06,NW,309,0.0,29.0,39,0.00,,,0.00,0,Wunderground v.1.15,2013-05-02 04:17:00,
2013-05-01 21:23:00,65.9,40.9,30.07,NW,309,0.0,29.0,40,0.00,,,0.00,0,Wunderground v.1.15,2013-05-02 04:23:00,
2013-05-01 21:28:00,65.5,40.5,30.07,NW,309,0.0,29.0,40,0.00,,,0.00,0,Wunderground v.1.15,2013-05-02 04:28:00,
2013-05-01 21:33:00,65.2,40.3,30.07,NW,309,0.0,29.0,40,0.00,,,0.00,0,Wunderground v.1.15,2013-05-02 04:33:00,
2013-05-01 21:39:00,64.8,40.5,30.07,NW,309,0.0,29.0,41,0.00,,,0.00,0,Wunderground v.1.15,2013-05-02 04:39:00,
2013-05-01 21:44:00,64.5,40.3,30.07,NW,309,0.0,29.0,41,0.00,,,0.00,0,Wunderground v.1.15,2013-05-02 04:44:00,
2013-05-01 21:50:00,64.0,40.4,30.07,NW,309,0.0,29.0,42,0.00,,,0.00,0,Wunderground v.1.15,2013-05-02 04:50:00,
2013-05-01 21:56:00,63.6,40.1,30.07,NW,309,0.0,29.0,42,0.00,,,0.00,0,Wunderground v.1.15,2013-05-02 04:56:00,
2013-05-01 22:02:00,63.2,40.9,30.07,NW,309,0.0,29.0,44,0.00,,,0.00,0,Wunderground v.1.15,2013-05-02 05:02:00,
2013-05-01 22:08:00,62.8,40.5,30.07,NW,309,0.0,29.0,44,0.00,,,0.00,0,Wunderground v.1.15,2013-05-02 05:08:00,
2013-05-01 22:13:00,62.5,40.9,30.07,NW,309,0.0,29.0,45,0.00,,,0.00,0,Wunderground v.1.15,2013-05-02 05:13:00,
2013-05-01 22:18:00,62.2,41.2,30.07,NW,309,0.0,29.0,46,0.00,,,0.00,0,Wunderground v.1.15,2013-05-02 05:18:00,
2013-05-01 22:24:00,61.7,40.1,30.07,NW,309,0.0,29.0,45,0.00,,,0.00,0,Wunderground v.1.15,2013-05-02 05:24:00,
2013-05-01 22:30:00,61.2,40.8,30.07,NW,309,0.0,29.0,47,0.00,,,0.00,0,Wunderground v.1.15,2013-05-02 05:30:00,
2013-05-01 22:35:00,60.8,41.0,30.07,NW,309,0.0,29.0,48,0.00,,,0.00,0,Wunderground v.1.15,2013-05-02 05:35:00,
2013-05-01 22:40:00,60.5,41.2,30.08,NW,309,0.0,29.0,49,0.00,,,0.00,0,Wunderground v.1.15,2013-05-02 05:40:00,
2013-05-01 22:46:00,60.1,41.4,30.07,WNW,297,0.0,29.0,50,0.00,,,0.00,0,Wunderground v.1.15,2013-05-02 05:46:00,
2013-05-01 22:51:00,59.7,40.5,30.08,NE,38,1.0,29.0,49,0.00,,,0.00,0,Wunderground v.1.15,2013-05-02 05:51:00,
2013-05-01 22:56:00,59.4,40.2,30.08,NE,38,0.0,29.0,49,0.00,,,0.00,0,Wunderground v.1.15,2013-05-02 05:56:00,
2013-05-01 23:02:00,59.1,39.9,30.08,NE,38,0.0,29.0,49,0.00,,,0.00,0,Wunderground v.1.15,2013-05-02 06:02:00,
2013-05-01 23:07:00,58.8,39.7,30.08,NE,50,0.0,29.0,49,0.00,,,0.00,0,Wunderground v.1.15,2013-05-02 06:07:00,
2013-05-01 23:12:00,58.5,39.4,30.08,NNE,26,1.0,29.0,49,0.00,,,0.00,0,Wunderground v.1.15,2013-05-02 06:12:00,
2013-05-01 23:17:00,58.2,39.6,30.08,NNE,26,0.0,29.0,50,0.00,,,0.00,0,Wunderground v.1.15,2013-05-02 06:17:00,
2013-05-01 23:22:00,58.1,39.5,30.08,NNE,26,0.0,29.0,50,0.00,,,0.00,0,Wunderground v.1.15,2013-05-02 06:22:00,
2013-05-01 23:28:00,57.9,39.9,30.08,NNE,26,0.0,29.0,51,0.00,,,0.00,0,Wunderground v.1.15,2013-05-02 06:28:00,
2013-05-01 23:33:00,57.7,39.2,30.08,NW,309,1.0,29.0,50,0.00,,,0.00,0,Wunderground v.1.15,2013-05-02 06:33:00,
2013-05-01 23:38:00,57.7,39.2,30.08,NNW,347,1.0,29.0,50,0.00,,,0.00,0,Wunderground v.1.15,2013-05-02 06:38:00,
2013-05-01 23:44:00,57.8,39.3,30.08,NNW,347,0.0,29.0,50,0.00,,,0.00,0,Wunderground v.1.15,2013-05-02 06:44:00,
2013-05-01 23:49:00,58.0,39.5,30.08,NW,319,1.0,29.0,50,0.00,,,0.00,0,Wunderground v.1.15,2013-05-02 06:49:00,
2013-05-01 23:55:00,58.3,39.7,30.08,NW,316,1.0,29.0,50,0.00,,,0.00,0,Wunderground v.1.15,2013-05-02 06:55:00,